Showing default

HJ-2E, 54035

Orbit data source: Space-Track

HJ-2E, 54035 is a payload satellite owned by CRESDA (CN) in SSO that was launched on Wed, 12 Oct 2022 UTC via a CHANG ZHENG 2C launch vehicle from the Taiyaun Space Center, China (TSC). Payload-class satellites include a variety of spacecraft equipped with specific instruments for various scientific and technological missions. These include communications satellites like Starlink; space stations such as the ISS; scientific satellites like the Hubble; Earth observation satellites from companies like Planet Labs, Umbra, and HawkEye 360; GPS; miniature CubeSats for education and research; and military/defense satellites.

Loading next visibility...
Identifier
54035, 2022-132A
Orbit
SSO
Country
Flag of CNCN / PRC
Related business
Manufacturer
DFH
Mission
Operational Civil Earth Obs Sci
Bus & Motor
CAST-2000, Unknown motor
Mass
510 kg wet, 510 kg dry
Launch date (UTC)
2022-10-12 (4 years ago)
Launch vehicle
CHANG ZHENG 2C
Launch site
Taiyaun Space Center, China (TSC)
Object type
Payload
Rocket body
Debris
Shape & HBR
Box + 2 Pan, 2.0 m
Radar Cross Section
2.715 m², Large (>1 m²)

Expand to show TLE details & history
Last TLE update: 23 hours ago

TLE from 23 hours ago
0 HJ-2E
1 54035U 22132A   26172.49169394  .00006898  00000-0  30025-3 0  9994
2 54035  97.3801 176.7903 0019954   0.1838 359.9402 15.22369453205074
Epoch: 2026-06-21T11:48Z
TLE epoch observation values (Epoch: 2026-06-21T11:48:02.356Z)
Latitude
-0.00005°
Longitude
90.08929°
Altitude
488.065 km
Speed
7.629 km/s
True Right ascension
11h 47m 09s
True Declination
0° 00' 00"
Sunlit
Object was in daylight at epoch
Visualization orbit readout
Latitude
Unknown
Longitude
Unknown
Altitude
Unknown
Speed
Unknown
Apparent Right ascension
Unknown
Apparent Declination
Unknown
Sunlit
N/A
Visualization observer readout
Local Sidereal Time
21:25:28
Azimuth
Unknown
Elevation
Unknown
Doppler factor
Unknown
Orbital elements
Apogee altitude
509.373 km
Perigee altitude
481.941 km
Semi-major axis
6,873.794 km
Eccentricity
0.002
Inclination
97.3801°
RAAN
176.7903°
Arg. of periapsis
0.1838°
True anomaly
359.93996°
Mean anomaly
359.9402°
Eccentric anomaly
359.94008°
Mean motion
3.80845 °/min
Orbital period
94.53 mins
BSTAR
0.00030025
Loading maneuver chart data...
Computing Atmospheric mass density...
Loading historical data...
Loading historical data...
Loading historical data...
Loading historical data...
Loading historical data...
Loading historical data...
Loading historical data...

Documentation

Showing up to 5 results
|